Time,TemperatureF,DewpointF,PressureIn,WindDirection,WindDirectionDegrees,WindSpeedMPH,WindSpeedGustMPH,Humidity,HourlyPrecipIn,Conditions,Clouds,dailyrainin,SolarRadiationWatts/m^2,SoftwareType,DateUTC
2013-11-09 19:00:00,70.9,69.1,29.77,East,90,1.0,-999.0,94,0.01,,,2.30,0,Wunderground v.1.15,2013-11-10 05:00:00,
2013-11-09 19:05:00,70.9,69.1,29.77,East,90,1.0,-999.0,94,0.00,,,2.30,0,Wunderground v.1.15,2013-11-10 05:05:00,
2013-11-09 19:10:00,70.9,69.1,29.77,East,90,1.0,-999.0,94,0.00,,,2.30,0,Wunderground v.1.15,2013-11-10 05:10:00,
2013-11-09 19:15:00,70.8,69.0,29.77,East,90,1.0,-999.0,94,0.00,,,2.30,0,Wunderground v.1.15,2013-11-10 05:15:00,
2013-11-09 19:20:00,70.8,69.0,29.77,East,90,1.0,-999.0,94,0.00,,,2.30,0,Wunderground v.1.15,2013-11-10 05:20:00,
2013-11-09 19:25:00,70.9,69.1,29.78,East,90,1.0,-999.0,94,0.00,,,2.30,0,Wunderground v.1.15,2013-11-10 05:25:00,
2013-11-09 19:30:00,70.9,69.1,29.78,East,90,1.0,-999.0,94,0.00,,,2.30,0,Wunderground v.1.15,2013-11-10 05:30:00,
2013-11-09 19:35:00,71.2,69.4,29.78,East,90,1.0,-999.0,94,0.00,,,2.30,0,Wunderground v.1.15,2013-11-10 05:35:00,
2013-11-09 19:40:00,71.2,69.4,29.78,East,90,1.0,-999.0,94,0.00,,,2.30,0,Wunderground v.1.15,2013-11-10 05:40:00,
2013-11-09 19:45:00,71.2,69.1,29.78,East,90,0.0,-999.0,93,0.00,,,2.30,0,Wunderground v.1.15,2013-11-10 05:45:00,
2013-11-09 19:50:00,71.2,69.1,29.78,East,90,0.0,-999.0,93,0.00,,,2.30,0,Wunderground v.1.15,2013-11-10 05:50:00,
2013-11-09 19:55:00,71.0,69.2,29.79,East,90,0.0,-999.0,94,0.00,,,2.30,0,Wunderground v.1.15,2013-11-10 05:55:00,
2013-11-09 20:00:00,71.0,69.2,29.79,East,90,0.0,-999.0,94,0.00,,,2.30,0,Wunderground v.1.15,2013-11-10 06:00:00,
2013-11-09 20:05:00,70.9,69.1,29.78,East,90,0.0,-999.0,94,0.00,,,2.30,0,Wunderground v.1.15,2013-11-10 06:05:00,
2013-11-09 20:10:00,70.9,69.1,29.78,East,90,0.0,-999.0,94,0.00,,,2.30,0,Wunderground v.1.15,2013-11-10 06:10:00,
2013-11-09 20:15:00,70.9,69.1,29.79,East,90,0.0,-999.0,94,0.00,,,2.30,0,Wunderground v.1.15,2013-11-10 06:15:00,
2013-11-09 20:20:00,70.9,69.1,29.79,East,90,0.0,-999.0,94,0.00,,,2.30,0,Wunderground v.1.15,2013-11-10 06:20:00,
2013-11-09 20:25:00,71.0,69.2,29.79,East,90,0.0,-999.0,94,0.00,,,2.30,0,Wunderground v.1.15,2013-11-10 06:25:00,
2013-11-09 20:30:00,71.0,69.2,29.79,East,90,0.0,-999.0,94,0.00,,,2.30,0,Wunderground v.1.15,2013-11-10 06:30:00,
2013-11-09 20:35:00,71.0,68.9,29.78,East,90,0.0,-999.0,93,0.00,,,2.30,0,Wunderground v.1.15,2013-11-10 06:35:00,
2013-11-09 20:40:00,71.0,68.9,29.78,East,90,0.0,-999.0,93,0.00,,,2.30,0,Wunderground v.1.15,2013-11-10 06:40:00,
2013-11-09 20:45:00,70.9,68.8,29.79,East,90,1.0,-999.0,93,0.00,,,2.30,0,Wunderground v.1.15,2013-11-10 06:45:00,
2013-11-09 20:50:00,70.9,68.8,29.79,East,90,1.0,-999.0,93,0.00,,,2.30,0,Wunderground v.1.15,2013-11-10 06:50:00,
2013-11-09 20:55:00,71.5,69.4,29.80,East,90,2.0,-999.0,93,0.00,,,2.30,0,Wunderground v.1.15,2013-11-10 06:55:00,
2013-11-09 21:00:00,71.5,69.4,29.80,East,90,2.0,-999.0,93,0.00,,,2.30,0,Wunderground v.1.15,2013-11-10 07:00:00,
2013-11-09 21:05:00,72.0,69.5,29.80,East,90,1.0,-999.0,92,0.00,,,2.30,0,Wunderground v.1.15,2013-11-10 07:05:00,
2013-11-09 21:10:00,72.0,69.5,29.80,East,90,1.0,-999.0,92,0.00,,,2.30,0,Wunderground v.1.15,2013-11-10 07:10:00,
2013-11-09 21:15:00,72.6,70.1,29.80,East,90,4.0,-999.0,92,0.00,,,2.30,0,Wunderground v.1.15,2013-11-10 07:15:00,
2013-11-09 21:20:00,72.6,70.1,29.80,East,90,4.0,-999.0,92,0.00,,,2.30,0,Wunderground v.1.15,2013-11-10 07:20:00,
2013-11-09 21:25:00,73.2,70.4,29.79,ENE,68,4.0,-999.0,91,0.00,,,2.30,0,Wunderground v.1.15,2013-11-10 07:25:00,
2013-11-09 21:30:00,73.2,70.4,29.79,ENE,68,4.0,-999.0,91,0.00,,,2.30,0,Wunderground v.1.15,2013-11-10 07:30:00,
2013-11-09 21:35:00,72.4,69.6,29.80,NNE,23,5.0,-999.0,91,0.03,,,2.30,0,Wunderground v.1.15,2013-11-10 07:35:00,
2013-11-09 21:40:00,72.4,69.6,29.80,NNE,23,5.0,-999.0,91,0.03,,,2.30,0,Wunderground v.1.15,2013-11-10 07:40:00,
2013-11-09 21:45:00,71.5,68.7,29.80,NE,45,4.0,-999.0,91,0.08,,,2.30,0,Wunderground v.1.15,2013-11-10 07:45:00,
2013-11-09 21:50:00,71.5,68.7,29.80,NE,45,4.0,-999.0,91,0.08,,,2.30,0,Wunderground v.1.15,2013-11-10 07:50:00,
2013-11-09 21:55:00,71.9,69.4,29.80,NNE,23,6.0,-999.0,92,0.12,,,2.30,0,Wunderground v.1.15,2013-11-10 07:55:00,
2013-11-09 22:00:00,71.9,69.4,29.80,NNE,23,6.0,-999.0,92,0.12,,,2.30,0,Wunderground v.1.15,2013-11-10 08:00:00,
2013-11-09 22:05:00,71.8,69.7,29.81,NNE,23,8.0,-999.0,93,0.18,,,2.30,0,Wunderground v.1.15,2013-11-10 08:05:00,
2013-11-09 22:10:00,71.8,69.7,29.81,NNE,23,8.0,-999.0,93,0.18,,,2.30,0,Wunderground v.1.15,2013-11-10 08:10:00,
2013-11-09 22:15:00,71.3,69.2,29.80,ENE,68,7.0,-999.0,93,0.25,,,2.30,0,Wunderground v.1.15,2013-11-10 08:15:00,
2013-11-09 22:20:00,71.3,69.2,29.80,ENE,68,7.0,-999.0,93,0.25,,,2.30,0,Wunderground v.1.15,2013-11-10 08:20:00,
2013-11-09 22:25:00,70.9,68.8,29.80,NE,45,6.0,-999.0,93,0.33,,,2.30,0,Wunderground v.1.15,2013-11-10 08:25:00,
2013-11-09 22:30:00,70.9,68.8,29.80,NE,45,6.0,-999.0,93,0.33,,,2.30,0,Wunderground v.1.15,2013-11-10 08:30:00,
2013-11-09 22:35:00,70.5,68.4,29.81,NNE,23,7.0,-999.0,93,0.37,,,2.30,0,Wunderground v.1.15,2013-11-10 08:35:00,
2013-11-09 22:40:00,70.5,68.4,29.81,NNE,23,7.0,-999.0,93,0.37,,,2.30,0,Wunderground v.1.15,2013-11-10 08:40:00,
2013-11-09 22:45:00,69.7,67.6,29.81,NE,45,6.0,-999.0,93,0.39,,,2.30,0,Wunderground v.1.15,2013-11-10 08:45:00,
2013-11-09 22:50:00,69.7,67.6,29.81,NE,45,6.0,-999.0,93,0.39,,,2.30,0,Wunderground v.1.15,2013-11-10 08:50:00,
2013-11-09 22:55:00,69.4,67.6,29.81,North,0,5.0,-999.0,94,0.42,,,2.30,0,Wunderground v.1.15,2013-11-10 08:55:00,
2013-11-09 23:00:00,69.4,67.6,29.81,North,0,5.0,-999.0,94,0.42,,,2.30,0,Wunderground v.1.15,2013-11-10 09:00:00,
2013-11-09 23:05:00,70.0,68.2,29.82,North,0,4.0,-999.0,94,0.43,,,2.30,0,Wunderground v.1.15,2013-11-10 09:05:00,
2013-11-09 23:10:00,70.0,68.2,29.82,North,0,4.0,-999.0,94,0.43,,,2.30,0,Wunderground v.1.15,2013-11-10 09:10:00,
2013-11-09 23:15:00,70.2,68.4,29.81,North,0,3.0,-999.0,94,0.43,,,2.30,0,Wunderground v.1.15,2013-11-10 09:15:00,
2013-11-09 23:20:00,70.2,68.4,29.81,North,0,3.0,-999.0,94,0.43,,,2.30,0,Wunderground v.1.15,2013-11-10 09:20:00,
2013-11-09 23:25:00,70.1,68.3,29.81,NNW,338,5.0,-999.0,94,0.43,,,2.30,0,Wunderground v.1.15,2013-11-10 09:25:00,
2013-11-09 23:30:00,70.1,68.3,29.81,NNW,338,5.0,-999.0,94,0.43,,,2.30,0,Wunderground v.1.15,2013-11-10 09:30:00,
2013-11-09 23:35:00,69.9,68.1,29.81,NNW,338,4.0,-999.0,94,0.43,,,2.30,0,Wunderground v.1.15,2013-11-10 09:35:00,
2013-11-09 23:40:00,69.9,68.1,29.81,NNW,338,4.0,-999.0,94,0.43,,,2.30,0,Wunderground v.1.15,2013-11-10 09:40:00,
2013-11-09 23:45:00,69.9,68.1,29.80,ENE,68,5.0,-999.0,94,0.43,,,2.30,0,Wunderground v.1.15,2013-11-10 09:45:00,
2013-11-09 23:50:00,69.9,68.1,29.80,ENE,68,5.0,-999.0,94,0.43,,,2.30,0,Wunderground v.1.15,2013-11-10 09:50:00,
2013-11-09 23:55:00,69.8,68.3,29.81,NE,45,4.0,-999.0,95,0.43,,,2.30,0,Wunderground v.1.15,2013-11-10 09:55:00,